Probability
0 3 3 3 3 3 3 6 3 3 6 6 10 10 3 6 6 3 0 0 0 0 0 0 0 0 0 0 0 0 0 0 0 0 0 0 0 0 0 0 0 0 0
0 3 3 3 3 3 0 0 3 3 3 6 3 0 0 0 0 0 0 0 0 0 0 0 0 0 0 0 0 0 0 0 0 0 0 0 0 0 0 0 0 0 0
0 0 3 3 3 0 0 0 0 0 0 6 0 0 0 0 0 0 0 0 0 0 0 0 0 0 0 0 0 0 0 0 0 0 0 0 0 0 0 0 0 0 0
0 0 3 3 3 3 0 0 0 0 0 0 0 0 0 0 0 0 0 0 0 0 0 0 0 0 0 0 0 0 0 0 0 0 0 0 0 0 0 0 0 0 0
0 0 3 0 3 3 0 0 0 0 0 0 0 0 0 0 0 0 0 0 0 0 0 0 0 0 0 0 0 0 0 0 0 0 0 0 0 0 0 0 0 0 0
0 0 0 0 3 3 0 0 0 0 3 0 0 0 0 0 0 0 0 0 0 0 0 0 0 0 0 0 0 0 0 0 0 0 0 0 0 0 0 0 0 0 0
0 0 0 0 0 0 0 0 0 0 0 3 0 0 0 0 0 0 0 0 0 0 0 0 0 0 0 0 0 0 0 0 0 0 0 0 0 0 0 0 0 0 0
0 0 0 0 0 0 0 0 0 0 0 0 0 0 0 0 0 0 0 0 0 0 0 0 0 0 0 0 0 0 0 0 0 0 0 0 0 0 0 0 0 0 0
0 0 0 0 0 0 0 0 0 0 0 0 0 0 0 0 0 0 0 0 0 0 0 0 0 0 0 0 0 0 0 0 0 0 0 0 0 0 0 0 0 0 0
0 0 0 0 0 0 0 0 0 0 0 0 0 0 0 0 0 0 0 0 0 0 0 0 0 0 0 0 0 0 0 0 0 0 0 0 0 0 0 0 0 0 0
0 0 0 0 0 0 0 0 0 0 0 0 0 0 0 0 0 0 0 0 0 0 0 0 0 0 0 0 0 0 0 0 0 0 0 0 0 0 0 0 0 0 0
0 0 0 0 0 0 0 0 0 0 0 0 0 0 0 0 0 0 0 0 0 0 0 0 0 0 0 0 0 0 0 0 0 0 0 0 0 0 0 0 0 0 0
0 0 0 0 0 0 0 0 0 0 0 0 0 0 0 0 0 0 0 0 0 0 0 0 0 0 0 0 0 0 0 0 0 0 0 0 0 0 0 0 0 0 0
0 0 0 0 0 0 0 0 0 0 0 0 0 0 0 0 0 0 0 0 0 0 0 0 0 0 0 0 0 0 0 0 0 0 0 0 0 0 0 0 0 0 0
0 0 0 0 0 0 0 0 0 0 0 0 0 0 0 0 0 0 0 0 0 0 0 0 0 0 0 0 0 0 0 0 0 0 0 0 0 0 0 0 0 0 0
0 0 0 0 0 0 0 0 0 0 0 0 0 0 0 0 0 0 0 0 0 0 0 0 0 0 0 0 0 0 0 0 0 0 0 0 0 0 0 0 0 0 0
0 0 0 0 0 0 0 0 0 0 0 0 0 0 0 0 0 0 0 0 0 0 0 0 0 0 0 0 0 0 0 0 0 0 0 0 0 0 0 0 0 0 0
0 0 0 0 0 0 0 0 0 0 0 0 0 0 0 0 0 0 0 0 0 0 0 0 0 0 0 0 0 0 0 0 0 0 0 0 0 0 0 0 0 0 0
0 0 0 0 0 0 0 0 0 0 0 0 0 0 0 0 0 0 0 0 0 0 0 0 0 0 0 0 0 0 0 0 0 0 0 0 0 0 0 0 0 0 0
0 0 0 0 0 0 0 0 0 0 0 0 0 0 0 0 0 0 0 0 0 0 0 0 0 0 0 0 0 0 0 0 0 0 0 0 0 0 0 0 0 0 0
0 0 0 0 0 0 0 0 0 0 0 0 0 0 0 0 0 0 0 0 0 0 0 0 0 0 0 0 0 0 0 0 0 0 0 0 0 0 0 0 0 0 0
0 0 0 0 0 0 0 0 0 0 0 0 0 0 0 0 0 0 0 0 0 0 0 0 0 0 0 0 0 0 0 0 0 0 0 0 0 0 0 0 0 0 0
0 0 0 0 0 0 0 0 0 0 0 0 0 0 0 0 0 0 0 0 0 0 0 0 0 0 0 0 0 0 0 0 0 0 0 0 0 0 0 0 0 0 0
0 0 0 0 0 0 0 0 0 0 0 0 0 0 0 0 0 0 0 0 0 0 0 0 0 0 0 0 0 0 0 0 0 0 0 0 0 0 0 0 0 0 0
0 0 0 0 0 0 0 0 0 0 0 0 0 0 0 0 0 0 0 0 0 0 0 0 0 0 0 0 0 0 0 0 0 0 0 0 0 0 0 0 0 0 0
0 0 0 0 0 0 0 0 0 0 0 0 0 0 0 0 0 0 0 0 0 0 0 0 0 0 0 0 0 0 0 0 0 0 0 0 0 0 0 0 0 0 0
Height
5686 5688 5690 5693 5695 5698 5700 5703 5706 5710 5713 5716 5719 5722 5725 5728 5730 5733 5735 5737 5740 5743 5745 5747 5749 5751 5753 5755 5757 5759 5761 5762 5763 5765 5766 5767 5768 5770 5770 5771 5772 5773 5773
5675 5677 5679 5681 5684 5686 5689 5691 5695 5698 5702 5705 5709 5711 5714 5717 5719 5722 5725 5728 5730 5732 5735 5737 5739 5741 5743 5746 5748 5750 5751 5753 5754 5755 5757 5759 5760 5761 5762 5763 5764 5764 5765
5663 5665 5667 5670 5672 5674 5677 5680 5683 5686 5690 5693 5697 5699 5702 5705 5709 5712 5715 5717 5720 5722 5725 5727 5729 5731 5734 5736 5738 5740 5742 5743 5745 5746 5747 5749 5751 5752 5753 5754 5755 5756 5756
5652 5654 5656 5658 5661 5663 5665 5668 5671 5674 5678 5681 5685 5688 5691 5695 5699 5701 5704 5707 5709 5712 5714 5717 5719 5721 5723 5726 5728 5729 5731 5733 5734 5736 5737 5739 5740 5742 5743 5745 5745 5746 5747
5641 5643 5645 5647 5649 5651 5654 5656 5659 5662 5666 5670 5673 5677 5680 5683 5687 5690 5693 5696 5698 5701 5703 5706 5709 5711 5713 5715 5717 5719 5721 5723 5724 5726 5727 5728 5729 5731 5732 5734 5736 5736 5736
5630 5631 5633 5634 5637 5639 5641 5644 5647 5650 5654 5658 5662 5665 5668 5672 5675 5678 5682 5685 5687 5690 5692 5695 5698 5701 5703 5705 5707 5709 5710 5712 5714 5715 5716 5718 5719 5720 5721 5723 5725 5726 5727
5619 5620 5621 5623 5625 5626 5628 5632 5635 5639 5643 5647 5650 5654 5657 5660 5664 5667 5670 5673 5676 5679 5682 5684 5687 5690 5692 5694 5696 5698 5699 5701 5703 5705 5706 5707 5708 5709 5710 5711 5712 5714 5715
5609 5609 5610 5611 5612 5614 5617 5620 5623 5627 5631 5636 5639 5642 5645 5648 5652 5655 5658 5662 5665 5668 5671 5673 5676 5678 5680 5682 5685 5687 5688 5690 5692 5694 5695 5696 5697 5698 5699 5700 5700 5701 5703
5599 5599 5599 5599 5600 5602 5604 5607 5611 5616 5620 5624 5628 5631 5634 5637 5640 5643 5646 5650 5653 5656 5659 5661 5664 5667 5669 5671 5673 5675 5677 5679 5681 5682 5684 5685 5686 5687 5688 5688 5688 5688 5689
5589 5589 5588 5589 5589 5590 5592 5595 5599 5604 5608 5612 5615 5619 5622 5625 5628 5631 5634 5638 5641 5644 5647 5650 5653 5655 5658 5660 5662 5664 5666 5668 5670 5671 5672 5674 5675 5676 5676 5676 5676 5676 5676
5579 5579 5579 5579 5578 5579 5581 5584 5588 5592 5596 5600 5604 5607 5611 5614 5617 5619 5623 5626 5629 5632 5635 5638 5641 5644 5646 5649 5651 5653 5655 5657 5659 5660 5662 5663 5664 5665 5665 5664 5664 5664 5664
5570 5570 5569 5569 5569 5570 5572 5574 5577 5580 5584 5588 5592 5596 5599 5602 5605 5608 5611 5614 5617 5621 5624 5626 5629 5632 5635 5638 5640 5643 5645 5646 5648 5649 5650 5651 5652 5653 5653 5653 5653 5652 5652
5562 5561 5561 5561 5561 5562 5564 5565 5567 5570 5573 5577 5580 5584 5587 5591 5594 5597 5600 5603 5606 5609 5613 5615 5618 5621 5624 5627 5629 5632 5633 5635 5636 5638 5639 5640 5641 5642 5642 5642 5641 5641 5641
5555 5553 5553 5553 5554 5555 5556 5557 5559 5561 5564 5566 5569 5572 5576 5579 5583 5586 5589 5592 5595 5598 5601 5604 5607 5610 5613 5615 5618 5620 5622 5624 5625 5626 5628 5628 5629 5630 5631 5631 5630 5629 5629
5548 5547 5546 5547 5547 5548 5549 5550 5551 5553 5555 5557 5559 5562 5565 5568 5571 5574 5577 5580 5583 5586 5590 5593 5596 5599 5601 5604 5606 5609 5611 5612 5614 5615 5616 5617 5618 5618 5618 5619 5618 5618 5618
5542 5541 5541 5540 5541 5541 5542 5543 5544 5545 5546 5548 5550 5552 5555 5557 5560 5563 5565 5568 5572 5575 5578 5581 5584 5587 5590 5592 5595 5597 5600 5601 5602 5604 5605 5606 5606 5606 5607 5607 5607 5606 5606
5535 5535 5534 5534 5534 5534 5534 5535 5536 5537 5537 5539 5540 5542 5544 5547 5549 5551 5554 5557 5560 5563 5566 5569 5572 5575 5578 5580 5583 5585 5588 5590 5591 5592 5593 5595 5595 5595 5595 5596 5595 5595 5595
5529 5528 5527 5527 5526 5526 5526 5527 5528 5529 5529 5530 5531 5533 5534 5536 5538 5541 5543 5546 5548 5551 5554 5557 5560 5563 5566 5568 5570 5573 5575 5577 5579 5580 5581 5582 5583 5584 5584 5584 5585 5584 5584
5522 5521 5520 5520 5519 5519 5519 5520 5520 5521 5521 5521 5522 5523 5524 5526 5528 5530 5532 5534 5537 5540 5542 5545 5547 5550 5553 5556 5558 5561 5563 5565 5567 5568 5569 5571 5572 5573 5572 5573 5573 5573 5572
5516 5515 5514 5513 5513 5512 5512 5512 5513 5513 5513 5513 5514 5514 5515 5516 5518 5520 5522 5524 5526 5529 5531 5533 5535 5538 5541 5543 5546 5548 5550 5553 5555 5557 5558 5559 5560 5561 5561 5562 5562 5562 5561
5510 5509 5508 5507 5506 5505 5505 5505 5505 5505 5504 5505 5505 5506 5506 5507 5508 5509 5511 5513 5516 5519 5521 5523 5524 5526 5529 5531 5534 5536 5539 5541 5544 5545 5547 5548 5549 5550 5550 5551 5551 5551 5551
5503 5502 5501 5500 5499 5498 5498 5498 5497 5497 5497 5497 5497 5497 5498 5498 5499 5500 5502 5503 5506 5508 5510 5512 5513 5515 5517 5520 5522 5525 5528 5530 5533 5535 5536 5537 5538 5539 5540 5540 5540 5541 5541
5497 5496 5495 5494 5493 5492 5491 5490 5490 5490 5489 5489 5489 5489 5489 5490 5490 5491 5493 5494 5496 5498 5500 5502 5504 5505 5507 5510 5512 5515 5517 5520 5522 5524 5526 5527 5528 5529 5530 5530 5530 5531 5531
5491 5490 5489 5488 5487 5485 5484 5483 5483 5483 5482 5482 5482 5482 5482 5482 5482 5483 5484 5485 5487 5489 5491 5493 5495 5496 5498 5500 5503 5505 5508 5510 5512 5514 5515 5517 5518 5519 5520 5521 5521 5522 5522
5485 5484 5483 5481 5480 5479 5477 5476 5476 5476 5476 5475 5475 5475 5475 5475 5475 5476 5476 5477 5479 5480 5482 5484 5486 5488 5490 5492 5493 5496 5498 5500 5503 5505 5506 5508 5509 5510 5511 5511 5512 5512 5512
5479 5477 5476 5475 5473 5472 5470 5469 5469 5468 5468 5468 5468 5468 5468 5468 5468 5468 5469 5469 5471 5472 5473 5475 5477 5479 5481 5483 5485 5487 5489 5491 5494 5496 5497 5498 5500 5501 5501 5502 5502 5502 5503
Wind_Speed
45 46 46 46 46 47 47 47 47 47 47 47 45 45 45 44 44 43 43 43 43 42 42 42 42 43 42 40 40 39 39 38 38 38 37 37 36 37 37 37 36 36 35
44 45 45 45 45 46 47 47 47 47 47 47 46 46 45 45 44 44 44 43 42 42 42 42 42 42 42 42 42 41 41 40 39 39 39 38 38 38 38 39 38 37 38
43 43 44 45 45 45 46 47 47 47 47 47 47 46 45 45 45 45 45 44 43 43 43 43 43 43 43 42 42 41 41 41 41 41 40 40 39 39 39 40 40 40 39
43 43 44 44 45 45 46 47 47 46 46 46 46 46 45 45 45 45 44 44 44 43 44 44 43 43 43 43 42 42 42 42 42 42 42 41 41 40 40 41 41 42 41
42 43 43 43 44 45 46 46 46 46 46 47 46 46 45 45 45 45 45 45 45 44 44 44 44 43 44 44 43 43 42 42 43 43 43 44 44 43 42 41 41 41 42
40 41 42 43 44 45 46 46 46 47 47 46 46 46 46 45 46 46 45 45 44 44 44 44 44 44 44 44 44 44 43 43 43 43 44 45 45 44 43 43 42 42 42
38 40 41 41 42 44 45 46 46 47 47 46 45 46 47 47 47 46 46 45 45 44 44 44 44 44 44 44 44 44 44 43 44 43 44 44 45 45 45 44 44 44 43
38 39 41 42 43 44 45 45 46 47 47 45 45 45 46 47 47 47 46 45 45 44 44 43 44 44 44 44 44 44 43 43 43 43 43 43 44 44 44 45 46 46 45
37 38 39 40 42 43 45 46 47 47 47 46 46 46 47 47 47 47 46 45 45 44 44 44 44 44 44 44 43 44 43 43 42 43 43 43 43 43 44 46 46 47 46
36 36 36 37 39 42 43 45 46 46 46 46 46 46 46 46 47 47 46 45 45 46 45 44 44 44 44 44 43 43 42 42 43 43 43 43 43 43 43 44 45 45 45
34 34 34 35 36 38 40 40 42 43 44 45 45 46 47 46 47 47 46 46 46 46 45 45 45 44 44 44 43 43 43 43 43 43 43 43 43 44 44 44 44 45 45
32 32 32 33 34 36 37 38 40 41 42 43 44 45 46 46 46 46 46 46 46 46 44 45 44 44 44 44 44 43 43 43 43 43 44 43 43 43 43 43 43 43 44
29 30 31 31 32 34 35 36 38 39 40 42 43 45 45 45 45 45 45 46 46 45 45 45 44 44 44 44 43 43 42 43 43 43 44 44 44 43 44 43 43 43 43
28 28 28 28 29 31 32 34 35 36 37 39 41 42 44 45 45 45 45 45 46 45 44 45 45 44 44 44 44 44 43 43 43 43 44 44 44 44 45 44 43 43 44
26 26 26 28 29 30 30 32 32 33 35 36 38 40 41 42 43 44 44 44 44 44 44 45 46 45 45 44 44 44 44 44 43 43 43 43 44 44 43 43 43 42 42
25 25 25 27 28 28 29 31 32 34 34 35 36 38 39 41 42 42 43 43 43 44 44 44 44 45 45 45 45 45 44 44 44 43 43 44 44 43 43 42 42 42 42
25 25 26 27 28 29 29 29 31 32 33 34 35 37 39 40 40 41 41 43 43 43 43 44 45 45 45 44 45 45 43 43 43 43 43 43 43 43 42 42 43 42 41
25 26 27 28 28 29 29 29 30 31 31 33 34 35 37 38 38 39 41 42 43 44 44 44 45 45 45 45 45 44 45 44 44 44 44 43 42 42 42 42 42 41 41
25 26 27 27 26 27 28 29 29 29 30 31 31 32 33 35 37 38 40 41 42 43 43 44 44 45 45 45 45 45 45 44 44 43 43 43 41 41 42 41 41 42 42
25 25 26 26 26 26 27 27 28 28 29 30 31 31 32 34 36 37 38 39 40 41 41 42 42 44 44 45 44 45 44 43 42 42 42 42 42 42 42 41 41 41 40
25 24 25 25 25 26 27 27 27 28 29 30 31 31 32 33 34 35 36 37 38 39 40 41 41 42 43 43 42 42 42 41 41 40 41 40 41 41 40 39 39 38 38
25 25 25 24 24 25 27 27 27 27 27 28 29 29 30 31 32 33 34 35 36 36 37 38 37 38 39 40 40 40 40 40 40 39 38 38 38 38 37 37 36 35 35
25 25 24 25 24 25 26 26 26 26 25 25 26 27 28 28 29 30 31 32 33 34 34 34 34 35 36 37 37 38 38 38 38 37 37 37 37 36 36 35 35 34 34
24 24 24 24 25 25 25 25 25 25 25 25 25 25 26 26 28 29 29 30 31 32 32 33 33 34 34 34 35 36 36 37 36 35 35 35 35 34 35 34 34 34 34
23 23 23 24 24 24 25 25 24 24 24 24 24 25 25 25 26 27 27 28 28 30 31 31 32 32 32 32 33 33 34 34 33 33 33 33 32 32 33 33 33 33 32
22 23 24 24 24 24 24 24 24 25 24 24 23 23 24 24 24 24 24 25 26 27 29 30 30 29 30 30 31 31 31 31 32 32 32 31 31 30 31 32 32 32 31
Wind_Direction
256 256 255 255 255 254 253 252 252 251 251 251 252 253 252 253 253 253 253 253 254 256 256 256 258 259 259 259 260 260 261 262 263 262 262 264 264 264 265 265 266 268 269
256 256 255 255 254 254 254 252 251 252 251 250 251 251 251 251 251 251 252 253 254 255 256 256 257 257 258 258 259 261 261 262 262 262 262 263 264 265 265 265 265 267 269
256 256 256 255 255 254 253 252 252 252 250 249 249 250 251 251 251 253 253 253 254 255 255 256 256 256 257 258 259 260 261 262 262 261 262 263 263 265 265 266 265 266 268
257 256 256 256 255 254 253 252 251 249 248 248 248 249 251 251 251 253 253 254 255 256 256 255 256 257 257 258 259 260 261 261 261 262 262 264 265 265 266 266 266 267 268
258 257 256 256 256 254 253 252 250 248 246 247 247 249 250 250 250 251 252 254 255 256 257 256 256 257 258 258 259 260 261 261 261 261 262 263 265 266 266 265 265 267 269
257 257 257 258 256 255 253 251 249 247 245 245 247 249 249 250 251 251 252 253 255 256 256 256 256 257 259 260 260 260 261 262 261 262 263 264 264 264 264 265 266 267 269
257 258 258 259 257 255 252 249 248 246 245 246 248 250 250 250 250 250 252 253 255 256 256 256 257 258 259 259 260 260 261 261 261 262 263 264 265 264 265 266 267 267 268
259 260 261 260 257 255 253 250 247 246 245 246 248 249 249 250 250 251 253 254 255 255 255 255 256 256 257 259 259 260 261 261 261 262 263 265 266 265 265 267 267 267 267
263 264 263 260 258 256 253 251 248 245 245 246 247 248 249 249 250 251 252 253 254 254 253 254 255 256 257 258 259 259 261 262 262 263 263 264 266 267 267 267 268 268 267
267 266 264 262 260 257 254 251 247 245 246 246 248 248 249 250 250 251 251 251 253 252 252 254 255 257 257 258 259 260 260 262 262 263 263 264 266 267 268 269 269 268 269
268 267 265 265 262 257 253 250 246 246 248 249 249 249 250 251 251 250 251 250 250 252 254 254 254 255 256 257 258 259 260 261 263 264 263 264 266 267 268 269 271 271 270
270 268 266 264 261 256 252 250 249 248 249 249 249 249 250 250 250 250 250 250 250 251 254 255 254 254 255 256 257 259 260 261 263 264 264 264 265 267 269 270 271 271 270
272 269 267 265 262 258 254 252 250 250 250 250 250 250 250 249 248 249 250 251 250 251 253 254 254 254 255 256 257 259 261 263 264 264 265 265 265 267 268 269 271 271 270
273 273 268 264 262 260 258 255 252 251 252 250 250 250 250 250 249 249 251 252 251 250 251 252 253 254 255 257 258 260 262 263 265 265 265 266 266 267 268 269 271 272 272
274 273 267 263 262 262 261 256 254 255 255 254 252 251 250 250 250 251 252 251 251 250 251 252 253 254 255 256 257 259 261 263 264 265 265 266 266 266 268 269 271 273 274
272 270 266 263 263 265 264 259 257 258 258 256 254 252 250 250 251 252 252 251 250 250 251 253 253 253 254 255 257 258 261 263 264 265 266 266 266 268 268 269 270 272 274
271 269 267 265 265 266 264 260 260 260 259 258 256 254 252 252 252 252 252 251 250 250 251 253 253 253 254 255 257 258 261 263 264 265 265 265 266 268 269 269 271 272 274
273 273 273 271 268 267 264 261 261 261 260 258 256 256 255 253 253 252 252 251 249 250 252 254 254 255 255 256 258 259 260 263 263 264 264 264 265 267 269 270 272 273 275
273 273 273 272 269 268 265 263 262 264 262 259 257 258 257 256 254 253 253 251 250 251 253 253 254 255 256 256 257 259 260 261 261 262 263 263 265 268 269 270 274 276 276
275 274 273 272 270 269 268 266 264 265 263 261 261 260 258 256 255 254 253 251 250 251 253 254 255 256 256 256 257 257 259 261 261 261 262 264 265 268 268 271 274 276 276
276 276 275 274 271 269 270 269 268 266 265 263 262 260 258 258 256 255 253 251 252 254 255 255 256 257 257 257 256 256 257 259 260 260 261 261 264 267 268 271 273 276 276
277 277 276 275 273 273 274 273 271 270 268 265 262 260 260 259 258 256 253 254 255 256 256 257 257 257 257 256 255 255 255 256 258 259 260 261 263 266 269 271 273 274 275
278 278 277 275 274 276 276 273 272 271 271 270 265 263 263 262 260 258 256 255 257 256 255 256 257 257 255 253 253 253 254 255 257 259 260 262 263 266 268 270 272 274 275
278 277 277 276 275 276 274 274 274 273 271 271 269 268 267 266 264 262 259 258 257 255 255 256 256 256 254 252 252 253 254 255 257 259 260 262 263 266 268 270 272 273 274
280 278 278 278 277 276 275 275 274 273 271 270 269 266 266 266 264 262 260 258 257 256 255 255 256 255 253 254 253 252 254 255 257 258 259 261 262 264 267 269 271 273 273
283 282 281 279 278 277 277 276 275 272 271 271 271 270 268 267 265 262 260 258 258 257 256 255 256 254 254 254 253 252 252 254 256 257 259 260 260 263 267 269 271 272 272